FLOCK 2K-21

Last updated on Feb. 14, 2018, 4:20 p.m. UTC

1 42860U 17042AM  18045.19502873  .00006900  00000-0  20099-3 0  9995
2 42860  96.9927 307.9891 0010009 187.8110 172.2980 15.35641035 32756
UTC
Height (km)
Latitude
Longitude
Inclination
Orbital Period
UTC large
Height (km)
Speed (km/s)
/
Latitude / Longitude
Inclination (degrees)
Orbital Period (minutes)
Azimuth
Elevation
Range (km)
Doppler Factor
iOS Compass Heading
iOS Angle